Wetbulb
62.65 65.38 67.10 68.52 68.77 68.18 67.97 69.75 73.28 72.25 71.78 71.41 71.24 70.97 71.04 70.38 70.76 70.90 69.39 69.75 67.77 66.08
62.25 65.10 65.60 68.53 68.97 67.85 68.62 70.28 71.04 71.28 71.31 71.51 71.71 71.51 71.60 71.13 71.47 70.70 69.56 68.51 67.61 67.26
62.65 64.85 67.59 68.94 68.47 67.51 68.48 70.90 70.03 70.81 71.63 71.64 71.83 72.25 72.37 71.83 71.86 70.87 69.18 66.50 67.72 67.71
62.42 64.30 67.07 68.24 68.51 68.80 69.92 70.21 69.73 70.80 71.29 71.37 71.81 72.43 72.05 71.91 71.14 69.51 66.43 65.59 66.14 68.20
62.98 63.44 66.80 67.55 67.58 68.57 69.59 69.92 69.75 70.62 70.95 71.35 71.88 71.91 71.44 70.70 70.12 68.17 64.90 65.56 67.84 67.50
63.87 63.35 65.96 66.92 67.76 68.78 69.31 69.60 70.09 70.43 70.62 71.07 71.43 71.36 71.19 70.62 68.91 67.19 66.24 66.53 68.04 67.38
64.36 63.22 65.88 67.30 68.94 69.48 69.21 69.37 70.07 70.44 70.77 71.17 71.25 70.78 70.57 69.82 67.36 65.81 65.25 66.67 67.99 67.19
65.92 62.73 64.78 66.95 68.26 68.97 69.31 69.63 70.03 70.26 70.81 71.38 70.65 69.62 70.05 67.70 65.72 65.54 65.36 67.27 66.86 67.10
66.31 62.94 65.29 67.16 68.16 68.87 68.82 69.23 69.91 70.14 70.29 70.28 68.99 53.57 56.05 63.53 65.92 66.28 66.60 66.07 66.24 66.40
65.96 64.91 65.56 67.32 67.75 67.21 67.38 68.00 68.82 70.15 69.82 69.95 69.43 51.28 52.39 56.11 66.71 67.05 66.93 66.87 66.39 65.17
65.12 65.51 66.37 66.98 66.10 66.74 67.21 67.32 68.15 68.94 70.19 69.29 66.38 49.25 49.74 53.21 67.39 67.05 66.78 66.97 66.65 66.04
64.26 64.63 64.56 64.52 66.20 66.98 66.36 66.85 67.50 68.68 66.54 64.63 57.66 46.50 47.26 57.59 66.78 65.81 65.54 65.67 65.85 65.73
62.77 64.80 65.08 66.60 66.59 65.89 66.14 66.01 66.25 62.81 66.73 58.69 60.64 43.96 46.72 58.03 65.53 64.81 64.22 64.42 63.52 49.94
63.65 64.66 65.39 64.84 64.45 64.75 64.23 64.40 61.93 59.64 60.18 61.70 60.75 52.80 45.81 49.44 65.24 64.24 62.57 61.28 60.10 60.66
MSLP
1001.94 1001.23 1000.89 1000.81 1000.56 1000.89 1001.15 1001.64 1002.30 1002.89 1003.33 1003.81 1004.11 1004.48 1005.31 1006.00 1006.40 1006.94 1007.46 1007.91 1008.39 1008.72
1000.67 1000.24 999.75 999.79 999.79 999.84 1000.24 1000.70 1001.54 1002.14 1002.50 1002.70 1002.93 1003.81 1004.70 1005.20 1005.42 1006.20 1007.34 1007.81 1008.18 1008.41
1000.00 999.41 999.18 999.15 998.87 999.09 999.66 1000.09 1000.77 1001.48 1002.09 1001.66 1002.45 1003.48 1004.24 1004.79 1004.93 1005.65 1006.88 1007.50 1007.92 1008.29
999.00 998.43 998.12 997.85 997.82 998.30 998.96 999.31 999.89 1000.61 1000.63 1001.13 1002.12 1003.13 1003.80 1004.16 1004.47 1005.32 1006.70 1007.20 1007.69 1007.96
998.10 997.59 997.18 996.77 997.02 997.52 997.91 998.40 998.95 999.75 999.95 1000.68 1001.69 1002.56 1003.03 1003.75 1004.08 1005.12 1006.23 1006.79 1007.13 1007.56
997.12 996.55 996.04 996.01 996.13 996.61 997.09 997.51 998.22 998.69 999.33 1000.26 1001.12 1001.96 1002.60 1003.24 1003.97 1004.98 1005.72 1006.32 1006.59 1007.11
995.93 995.48 995.24 995.23 995.56 995.72 996.07 996.78 997.48 998.11 999.03 1000.10 1000.86 1001.52 1002.33 1002.98 1003.99 1004.85 1005.57 1006.11 1006.40 1006.83
994.87 994.72 994.54 994.63 994.86 995.04 995.47 996.33 997.04 997.97 999.13 999.96 1000.61 1001.20 1001.99 1003.04 1003.80 1004.58 1005.34 1005.86 1006.22 1006.71
993.77 993.64 993.39 993.78 994.28 994.47 995.20 996.16 997.01 997.94 998.79 999.49 1000.23 1001.30 1002.05 1002.87 1003.62 1004.38 1004.96 1005.48 1006.05 1006.55
993.01 992.68 992.58 993.15 993.77 994.34 995.08 996.11 996.98 997.75 998.59 999.36 1000.17 1001.61 1002.19 1002.79 1003.46 1004.04 1004.55 1005.12 1005.72 1006.24
992.58 992.26 992.24 992.69 993.88 994.22 994.94 995.90 996.78 997.60 998.62 999.55 1000.61 1001.69 1002.33 1002.87 1003.35 1003.84 1004.37 1004.92 1005.52 1005.98
992.35 992.13 992.37 992.66 993.63 994.24 995.03 995.98 996.82 997.74 998.79 999.74 1001.10 1001.92 1002.47 1002.79 1003.30 1003.81 1004.38 1005.04 1005.57 1005.93
992.51 992.26 992.33 992.75 993.42 994.18 995.12 996.05 997.12 998.24 998.73 999.72 1001.05 1002.28 1002.56 1002.67 1003.04 1003.86 1004.40 1005.19 1005.83 1006.37
992.28 992.32 992.63 993.19 993.94 994.74 995.55 996.53 997.33 998.39 999.49 1000.22 1000.90 1002.36 1002.84 1002.79 1003.12 1003.72 1004.51 1005.18 1005.87 1006.43
Wind_Speed
14 11 11 15 11 10 10 10 12 15 14 14 13 11 10 9 9 10 8 11 7 4
14 14 13 16 13 10 10 10 12 13 13 14 11 11 12 9 11 10 9 8 7 7
16 16 16 15 14 13 11 12 13 12 13 11 10 11 12 10 10 10 8 5 9 8
18 18 16 15 14 14 12 13 14 14 12 12 12 13 13 11 11 12 9 7 9 10
18 18 16 15 15 14 14 14 15 14 12 13 14 15 14 13 12 13 10 10 12 11
18 17 17 16 15 16 16 15 14 14 14 15 16 16 14 14 12 11 10 10 12 11
18 18 17 16 16 16 15 15 14 14 14 15 16 15 14 13 12 10 9 9 10 10
17 18 17 16 16 15 15 13 13 14 14 15 14 12 14 12 11 10 9 9 9 9
17 16 16 15 16 14 14 15 16 16 16 16 10 13 14 12 10 10 11 10 10 8
13 15 16 15 15 15 15 15 16 15 15 16 13 16 16 14 9 11 10 10 10 8
11 12 14 14 15 15 14 15 13 15 15 13 11 16 16 13 11 9 9 9 10 9
8 10 13 15 15 14 12 11 11 14 14 13 11 13 15 13 10 9 9 8 8 8
9 9 14 14 12 11 11 13 11 10 12 12 13 10 13 11 8 9 8 7 7 1
8 8 8 9 9 10 12 12 12 12 9 10 11 10 9 10 9 8 8 7 5 4
Wind_Direction
255 243 237 234 227 218 211 211 198 197 190 192 188 180 185 194 195 190 193 199 191 183
262 246 238 234 222 216 204 199 194 192 189 186 169 175 184 194 182 182 189 194 175 196
264 245 233 227 218 208 197 193 184 188 194 162 164 179 181 184 172 180 187 159 183 197
267 247 232 224 217 207 193 183 183 191 173 166 172 179 182 182 174 177 172 156 180 193
274 248 231 219 214 201 196 189 188 190 173 173 178 177 177 179 174 175 165 172 188 186
275 241 224 212 201 195 194 184 187 182 180 180 179 176 178 178 175 173 165 175 185 182
272 235 220 204 193 184 182 180 183 180 182 182 177 174 176 173 169 159 160 177 183 182
270 236 220 202 192 178 171 178 175 173 180 177 173 171 173 168 154 153 159 177 181 188
266 226 208 192 183 167 164 171 172 174 173 171 171 145 146 151 150 158 174 177 183 180
252 213 193 185 173 165 161 164 167 169 169 171 161 154 147 144 151 168 175 178 176 176
233 196 176 162 170 161 156 162 158 162 169 164 159 153 147 151 158 167 174 177 179 181
250 181 167 161 164 157 144 149 158 163 153 143 142 143 144 161 160 161 164 168 177 182
284 185 171 163 152 144 149 150 144 129 135 138 138 146 155 166 156 160 159 160 152 81
253 189 159 135 139 143 134 135 124 109 108 122 138 147 153 150 163 165 163 162 161 168